This is the latest recevied weather packets stored in our database for station/object KM4CNW. If no packets are shown the sender has not sent any weather packets the latest 10 day(s).
| Time | Temp. | Humidity | Pressure | Rain* | Wind** | Luminosity | Snow |
|---|---|---|---|---|---|---|---|
| 1777619402 | 12.22° C | 59% | 1008.9 hPa | 0 mm | - | 0 W/m² | - |
| 1777619102 | 12.22° C | 57% | 1008.8 hPa | 0 mm | - | 0 W/m² | - |
| 1777618796 | 12.22° C | 58% | 1008.8 hPa | 0 mm | - | 0 W/m² | - |
| 1777618491 | 12.22° C | 57% | 1008.6 hPa | 0 mm | - | 0 W/m² | - |
| 1777618188 | 12.22° C | 58% | 1008.8 hPa | 0 mm | - | 0 W/m² | - |
| 1777617885 | 12.22° C | 60% | 1008.6 hPa | 0 mm | - | 0 W/m² | - |
| 1777617580 | 12.22° C | 58% | 1008.6 hPa | 0 mm | - | 0 W/m² | - |
| 1777617277 | 12.22° C | 59% | 1008.9 hPa | 0 mm | - | 0 W/m² | - |
| 1777616974 | 11.67° C | 58% | 1008.8 hPa | 0 mm | - | 0 W/m² | - |
| 1777616669 | 11.67° C | 59% | 1008.7 hPa | 0 mm | - | 0 W/m² | - |
| 1777616364 | 11.67° C | 59% | 1008.7 hPa | 0 mm | - | 0 W/m² | - |
| 1777616061 | 12.22° C | 57% | 1008.9 hPa | 0 mm | - | 0 W/m² | - |
| 1777615758 | 12.22° C | 57% | 1008.8 hPa | 0 mm | - | 0 W/m² | - |
| 1777615455 | 12.22° C | 56% | 1008.9 hPa | 0 mm | - | 0 W/m² | - |
| 1777615154 | 12.22° C | 56% | 1008.8 hPa | 0 mm | - | 0 W/m² | - |
| 1777614850 | 11.67° C | 56% | 1008.8 hPa | 0 mm | - | 0 W/m² | - |
| 1777614547 | 11.67° C | 57% | 1008.7 hPa | 0 mm | - | 0 W/m² | - |
| 1777614242 | 11.67° C | 58% | 1008.4 hPa | 0 mm | - | 0 W/m² | - |
| 1777613937 | 12.22° C | 58% | 1008.7 hPa | 0 mm | - | 0 W/m² | - |
| 1777613634 | 12.22° C | 57% | 1008.6 hPa | 0 mm | - | 0 W/m² | - |
| 1777613331 | 11.67° C | 57% | 1008.6 hPa | 0 mm | - | 0 W/m² | - |
| 1777613028 | 11.67° C | 57% | 1008.4 hPa | 0 mm | - | 0 W/m² | - |
| 1777612724 | 11.67° C | 60% | 1008.3 hPa | 0 mm | - | 0 W/m² | - |
| 1777612420 | 11.67° C | 59% | 1008.4 hPa | 0 mm | - | 0 W/m² | - |
| 1777612115 | 11.67° C | 60% | 1008.5 hPa | 0 mm | - | 0 W/m² | - |
* Rain latest hour (hover to see other rain measurements)
** Current wind speed in m/s (hover to see current wind gust speed)